Showing default

PORCUPINE 1, 1272

Orbit data source: Space-Track

PORCUPINE 1, 1272 is a payload satellite owned by NRL (US) in LEO that was launched on Tue, 09 Mar 1965 UTC via a THOR SLV-2 AGENA D launch vehicle from the Air Force Western Test Range (AFWTR). Payload-class satellites include a variety of spacecraft equipped with specific instruments for various scientific and technological missions. These include communications satellites like Starlink; space stations such as the ISS; scientific satellites like the Hubble; Earth observation satellites from companies like Planet Labs, Umbra, and HawkEye 360; GPS; miniature CubeSats for education and research; and military/defense satellites.

Loading next visibility...
Identifier
1272, 1965-016H
Orbit
LEO
Country
Flag of USUS
Related business
Manufacturer
NRL
Mission
Spacecraft
Bus & Motor
NRL 9", Unknown motor
Mass
4 kg wet, 4 kg dry
Launch date (UTC)
1965-03-09 (61 years ago)
Launch vehicle
THOR SLV-2 AGENA D
Launch site
Air Force Western Test Range (AFWTR)
Object type
Payload
Rocket body
Debris
Shape & HBR
Unknown
Radar Cross Section
Medium (>0.1 m² and <1 m²)

Expand to show TLE details & history
Last TLE update: 2 days ago

TLE from 2 days ago
0 PORCUPINE 1
1 01272U 65016H   26134.50267337 -.00000001  00000-0  38578-4 0  9996
2 01272  70.0796 321.2041 0021884 173.3071 186.8331 13.94531270111683
Epoch: 2026-05-14T12:03Z
TLE epoch observation values (Epoch: 2026-05-14T12:03:50.979Z)
Latitude
-0.00001°
Longitude
-92.00573°
Altitude
930.955 km
Speed
7.379 km/s
True Right ascension
21h 24m 48s
True Declination
0° 00' 00"
Sunlit
Object was in daylight at epoch
Visualization orbit readout
Latitude
Unknown
Longitude
Unknown
Altitude
Unknown
Speed
Unknown
Apparent Right ascension
Unknown
Apparent Declination
Unknown
Sunlit
N/A
Visualization observer readout
Local Sidereal Time
20:16:09
Azimuth
Unknown
Elevation
Unknown
Doppler factor
Unknown
Orbital elements
Apogee altitude
926.782 km
Perigee altitude
894.879 km
Semi-major axis
7,288.968 km
Eccentricity
0.00219
Inclination
70.0796°
RAAN
321.2041°
Arg. of periapsis
173.3071°
True anomaly
186.80334°
Mean anomaly
186.8331°
Eccentric anomaly
186.81821°
Mean motion
3.48774 °/min
Orbital period
103.22 mins
BSTAR
0.000038578
Loading maneuver chart data...
Computing Atmospheric mass density...
Loading historical data...
Loading historical data...
Loading historical data...
Loading historical data...
Loading historical data...
Loading historical data...
Loading historical data...

Documentation

Showing up to 5 results
|